write mail from CFAD0::NAKANO on 2001-11-27 01:14:55(JST).

 



◎C/2001 RX14の軌道と予報位置です



 ダイニックの杉江淳氏の11月14日の観測が報告されました.氏の CCD全光度は

17.6等でした.



    C/2001 RX14 (LINEAR) 

T 2003 Jan. 19.03222 TT                                 Nakano

q   2.0590815            (2000.0)            P               Q

                   Peri.  121.49354     -0.68627511     -0.71660862

                   Node    14.17242     +0.36333717     -0.48603931

e   1.0            Incl.   30.56170     +0.63008934     -0.50023782

From 199 observations 2001 Aug. 28-Nov. 14.



Date/        TT  R.A.(2000) Decl.     Delta   r     Daily motion  Mag.  Moon Age

              h    h  m       。  ,                      ,  / PA 。  m1      。

2001 Nov. 15 12  01 23.03  +22 43.0   4.116  5.009     8.7 / 259  16.6  148  .00

          16 12  01 22.41  +22 41.3   4.115  5.000     8.6 / 259  16.6  136  .02

          17 12  01 21.80  +22 39.6   4.114  4.992     8.5 / 258  16.6  123  .06

          18 12  01 21.20  +22 37.9   4.114  4.984     8.3 / 258  16.5  111  .12

          19 12  01 20.61  +22 36.2   4.114  4.975     8.2 / 258  16.5   99  .19

          20 12  01 20.03  +22 34.5   4.114  4.967     8.1 / 258  16.5   87  .27

          21 12  01 19.46  +22 32.8   4.114  4.959     7.9 / 258  16.5   75  .36

          22 12  01 18.91  +22 31.1   4.114  4.950     7.8 / 257  16.5   64  .46

          23 12  01 18.36  +22 29.4   4.115  4.942     7.6 / 257  16.5   53  .55

          24 12  01 17.82  +22 27.7   4.116  4.934     7.5 / 257  16.5   42  .64

          25 12  01 17.30  +22 26.0   4.118  4.925     7.3 / 257  16.5   31  .73

          26 12  01 16.78  +22 24.3   4.119  4.917     7.1 / 257  16.5   23  .81

          27 12  01 16.28  +22 22.6   4.121  4.908     7.0 / 256  16.5   18  .88

          28 12  01 15.79  +22 21.0   4.123  4.900     6.8 / 256  16.5   21  .94

          29 12  01 15.32  +22 19.3   4.125  4.892     6.6 / 256  16.5   30  .98

          30 12  01 14.86  +22 17.7   4.128  4.883     6.4 / 256  16.5   41 1.00

     Dec.  1 12  01 14.41  +22 16.1   4.130  4.875     6.3 / 256  16.5   53 1.00

           2 12  01 13.97  +22 14.6   4.133  4.867     6.1 / 255  16.5   66  .97

           3 12  01 13.55  +22 13.0   4.136  4.858     5.9 / 255  16.4   79  .92

           4 12  01 13.14  +22 11.5   4.140  4.850     5.7 / 255  16.4   93  .85

           5 12  01 12.74  +22 10.1   4.143  4.841     5.5 / 255  16.4  106  .75

           6 12  01 12.36  +22 08.6   4.147  4.833     5.3 / 255  16.4  119  .65

           7 12  01 12.00  +22 07.2   4.151  4.825     5.1 / 254  16.4  133  .54

           8 12  01 11.64  +22 05.9   4.155  4.816     4.9 / 254  16.4  145  .42

           9 12  01 11.31  +22 04.5   4.159  4.808     4.7 / 254  16.4  156  .31

          10 12  01 10.99  +22 03.3   4.164  4.800     4.4 / 254  16.4  162  .21

          11 12  01 10.68  +22 02.0   4.168  4.791     4.2 / 254  16.4  159  .13

          12 12  01 10.39  +22 00.9   4.173  4.783     4.0 / 254  16.4  149  .06

          13 12  01 10.11  +21 59.7   4.178  4.774     3.8 / 254  16.4  137  .02

          14 12  01 09.85  +21 58.7   4.183  4.766     3.6 / 253  16.4  125  .00

          15 12  01 09.60  +21 57.7   4.189  4.758     3.3 / 253  16.4  113  .00

          16 12  01 09.37  +21 56.7   4.194  4.749     3.1 / 253  16.4  101  .03

          17 12  01 09.16  +21 55.8   4.199  4.741     2.9 / 253  16.4   89  .07

          18 12  01 08.96  +21 55.0   4.205  4.732     2.7 / 253  16.4   77  .13

          19 12  01 08.78  +21 54.2   4.211  4.724     2.4 / 253  16.4   65  .20

          20 12  01 08.61  +21 53.5   4.217  4.716     2.2 / 253  16.4   54  .28

          21 12  01 08.46  +21 52.8   4.223  4.707     2.0 / 253  16.4   43  .37

          22 12  01 08.33  +21 52.2   4.229  4.699     1.7 / 253  16.4   33  .46

          23 12  01 08.21  +21 51.7   4.235  4.690     1.5 / 253  16.3   24  .56

          24 12  01 08.11  +21 51.3   4.242  4.682     1.3 / 253  16.3   19  .65

          25 12  01 08.02  +21 50.9   4.248  4.673     1.0 / 253  16.3   20  .74

          26 12  01 07.95  +21 50.6   4.255  4.665      .8 / 254  16.3   27  .83

          27 12  01 07.90  +21 50.4   4.261  4.657      .6 / 255  16.3   38  .90

          28 12  01 07.86  +21 50.3   4.268  4.648      .3 / 257  16.3   50  .95

          29 12  01 07.84  +21 50.2   4.275  4.640      .1 / 274  16.3   62  .99

          30 12  01 07.83  +21 50.2   4.282  4.631      .2 /  57  16.3   76 1.00

          31 12  01 07.84  +21 50.3   4.289  4.623      .4 /  65  16.3   89  .98

2002 Jan.  1 12  01 07.86  +21 50.4   4.296  4.615      .6 /  67  16.3  103  .94

NAKANO

         **** Don't distribute anyone except personal use only ****

                (C) Copyright 2001 OAA/ComputingSection

write mail from CFAD0::NAKANO on 2001-11-18 05:29:36(JST).

 

    C/2001 RX14 (LINEAR) 

T 2003 Jan. 19.04256 TT                                 Nakano

q   2.0590542            (2000.0)            P               Q

                   Peri.  121.49562     -0.68629567     -0.71659076

                   Node    14.17169     +0.36334117     -0.48605230

e   1.0            Incl.   30.56056     +0.63006463     -0.50025078

From 149 observations 2001 Aug. 28-Oct. 26.





NAKANO

         **** Don't distribute anyone except personal use only ****

                (C) Copyright 2001 OAA/ComputingSection

write mail from CFAD0::NAKANO on 2001-10-29 22:52:42(JST).

 



◎C/2001 RX14の軌道と予報位置です



 ダイニックの杉江淳氏より,10月25日と26日の観測の報告がありました.

氏の CCD全光度は,それぞれ,17.6等と17.7等とのことです.なお,彗星は

完全な恒星状と氏は報告しています.



    C/2001 RX14 (LINEAR) 

T 2003 Jan. 19.04256 TT                                 Nakano

q   2.0590542            (2000.0)            P               Q

                   Peri.  121.49562     -0.68629567     -0.71659076

                   Node    14.17169     +0.36334117     -0.48605230

e   1.0            Incl.   30.56056     +0.63006463     -0.50025078

From 149 observations 2001 Aug. 28-Oct. 26.

    

 

Date/        TT  R.A.(2000) Decl.     Delta   r     Daily motion  Mag.  Moon Age

              h    h  m       。  ,                      ,  / PA 。  m1      。

2001 Oct. 30 14  01 33.73  +23 05.8   4.173  5.141     9.8 / 263  16.7   21  .97

          31 14  01 33.03  +23 04.7   4.167  5.133     9.7 / 263  16.7   17  .99

     Nov.  1 14  01 32.33  +23 03.5   4.162  5.125     9.7 / 263  16.7   21 1.00

           2 14  01 31.63  +23 02.3   4.156  5.116     9.7 / 262  16.7   30  .98

           3 14  01 30.94  +23 01.0   4.151  5.108     9.6 / 262  16.7   42  .94

           4 14  01 30.24  +22 59.7   4.147  5.100     9.6 / 262  16.7   54  .88

           5 14  01 29.56  +22 58.3   4.143  5.091     9.5 / 262  16.7   67  .80

           6 14  01 28.87  +22 56.9   4.139  5.083     9.5 / 261  16.6   80  .71

           7 14  01 28.19  +22 55.5   4.135  5.075     9.4 / 261  16.6   93  .60

           8 14  01 27.52  +22 54.0   4.132  5.066     9.4 / 261  16.6  107  .49

           9 14  01 26.85  +22 52.5   4.128  5.058     9.3 / 260  16.6  120  .38

          10 14  01 26.19  +22 51.0   4.126  5.050     9.2 / 260  16.6  134  .27

          11 14  01 25.53  +22 49.4   4.123  5.041     9.1 / 260  16.6  147  .17

          12 14  01 24.88  +22 47.8   4.121  5.033     9.0 / 260  16.6  158  .10

          13 14  01 24.24  +22 46.2   4.119  5.025     8.9 / 259  16.6  163  .04

          14 14  01 23.61  +22 44.5   4.117  5.016     8.8 / 259  16.6  158  .01

          15 14  01 22.98  +22 42.9   4.116  5.008     8.7 / 259  16.6  147  .00

          16 14  01 22.36  +22 41.2   4.115  5.000     8.6 / 259  16.6  135  .02

          17 14  01 21.76  +22 39.5   4.114  4.991     8.5 / 258  16.6  122  .06

          18 14  01 21.16  +22 37.8   4.114  4.983     8.3 / 258  16.5  110  .12

          19 14  01 20.57  +22 36.1   4.114  4.975     8.2 / 258  16.5   98  .20

          20 14  01 19.99  +22 34.4   4.114  4.966     8.1 / 258  16.5   86  .28

          21 14  01 19.42  +22 32.7   4.114  4.958     7.9 / 258  16.5   74  .37

          22 14  01 18.86  +22 30.9   4.115  4.950     7.8 / 257  16.5   63  .46

          23 14  01 18.31  +22 29.2   4.115  4.941     7.6 / 257  16.5   52  .56

          24 14  01 17.78  +22 27.5   4.117  4.933     7.5 / 257  16.5   41  .65

          25 14  01 17.25  +22 25.8   4.118  4.925     7.3 / 257  16.5   31  .74

          26 14  01 16.74  +22 24.2   4.119  4.916     7.1 / 256  16.5   22  .82

          27 14  01 16.24  +22 22.5   4.121  4.908     7.0 / 256  16.5   18  .89

          28 14  01 15.75  +22 20.8   4.123  4.900     6.8 / 256  16.5   21  .94

          29 14  01 15.28  +22 19.2   4.126  4.891     6.6 / 256  16.5   30  .98

          30 14  01 14.82  +22 17.6   4.128  4.883     6.4 / 256  16.5   42 1.00

     Dec.  1 14  01 14.37  +22 16.0   4.131  4.874     6.2 / 256  16.5   54  .99

NAKANO

         **** Don't distribute anyone except personal use only ****

                (C) Copyright 2001 OAA/ComputingSection

write mail from CFAD0::NAKANO on 2001-10-29 17:51:17(JST).

 

戻ります。